Location: Unspecified
(0.0000°N, 0.0000°E)
Time: 02:23:35
(UTC+00:00)

NNS O-23 - Pass Details

Date: 05 June 2023
Orbit: 1014 x 1297 km, 90.3° (Epoch: 01 October)

Event Time Altitude Azimuth Distance (km) Brightness Sun altitude
Rises 04:36:29 0° 132° (SE) 4,131 11.6 -18.9°
Reaches altitude 10° 04:41:40 10° 101° (ESE) 3,224 11.5 -17.7°
Maximum altitude 04:43:53 11° 84° (E) 3,133 11.8 -17.2°
Drops below altitude 10° 04:46:07 10° 66° (ENE) 3,262 12.1 -16.7°
Sets 04:51:24 0° 36° (NE) 4,258 12.4 -15.5°
